Location: Chervonnoye
(48.6000°N, 34.4000°E)
Time: 02:18:42
(UTC+00:00)

NOAA 15 - Pass Details

Date: 04 December 2021
Orbit: 797 x 812 km, 98.7° (Epoch: 17 January)

Event Time Altitude Azimuth Distance (km) Brightness Sun altitude
Rises 04:22:54 0° 26° (NNE) 3,319 7.8 -8.7°
Reaches altitude 10° 04:25:51 10° 43° (NE) 2,382 7.3 -8.2°
Maximum altitude 04:29:44 21° 91° (E) 1,742 7.4 -7.6°
Drops below altitude 10° 04:33:37 10° 139° (SE) 2,366 8.3 -7.1°
Sets 04:36:30 0° 155° (SSE) 3,290 8.7 -6.6°
